Palacios, TX

6:33 PM CST on January 17, 2018 (GMT -0600)
Palacios Municipal

Weather History for KPSX - August, 2013

Change the Weather History Date:

Wednesday, August 14, 2013

  Actual Average Record
Temperature  
Mean Temperature 86 °F -  
Max Temperature 93 °F 90 °F 98 °F (1951)
Min Temperature 82 °F 77 °F 66 °F (2004)
Cooling Degree Days 22    
Growing Degree Days 36 (Base 50)    
Moisture  
Dew Point 75 °F    
Average Humidity 71    
Maximum Humidity 79    
Minimum Humidity 57    
Precipitation  
Precipitation 0.00 in - - ()
Sea Level Pressure  
Sea Level Pressure 29.95 in    
Wind  
Wind Speed 12 mph (SSW)    
Max Wind Speed 18 mph    
Max Gust Speed 23 mph    
Visibility 10 miles    
Events      
Averages and records for this station are not official NWS values.
T = Trace of Precipitation, MM = Missing Value Source: NWS Daily Summary

Daily Weather History Graph

Daily Weather History Graph

Search for Another Location

Airport or City:

Trip Planner

Search our weather history database for the weather conditions in past years. The results will help you decide how hot, cold, wet, or windy it might be!

Date:

Astronomy

Aug. 14, 2013 Rise Set
Actual Time 6:53 AM CDT 8:05 PM CDT
Civil Twilight 6:28 AM CDT 8:29 PM CDT
Nautical Twilight 5:59 AM CDT 8:59 PM CDT
Astronomical Twilight 5:28 AM CDT 9:29 PM CDT
Moon 2:12 PM CDT (8/14) 12:21 AM CDT (8/14)
Length of Visible Light 14h 00m
Length of Day
13h 11m
First Quarter, 53% of the Moon is Illuminated
Aug 14
First Quarter
Aug 20
Full
Aug 28
Last Quarter
Sep 5
New
Sep 12
First Quarter

Hourly Weather History & Observations

Time (CDT) Temp. Heat Index Dew Point Humidity Pressure Visibility Wind Dir Wind Speed Gust Speed Precip Events Conditions
12:53 AM 82.9 °F 90.8 °F 75.9 °F 79% 29.95 in 10.0 mi South 9.2 mph - N/A   Clear
1:53 AM 82.9 °F 90.8 °F 75.9 °F 79% 29.95 in 10.0 mi South 12.7 mph - N/A   Partly Cloudy
2:32 AM 84.2 °F 94.1 °F 77.0 °F 79% 29.95 in 10.0 mi South 12.7 mph - N/A   Mostly Cloudy
2:53 AM 84.0 °F 93.7 °F 77.0 °F 79% 29.95 in 10.0 mi South 15.0 mph - N/A   Scattered Clouds
3:24 AM 84.2 °F 94.1 °F 77.0 °F 79% 29.95 in 10.0 mi South 11.5 mph 18.4 mph N/A   Mostly Cloudy
3:53 AM 84.0 °F 93.7 °F 77.0 °F 79% 29.95 in 10.0 mi South 16.1 mph - N/A   Scattered Clouds
4:40 AM 84.2 °F 92.3 °F 75.2 °F 74% 29.95 in 10.0 mi SSW 13.8 mph 20.7 mph N/A   Mostly Cloudy
4:50 AM 84.2 °F 92.3 °F 75.2 °F 74% 29.94 in 10.0 mi SSW 11.5 mph 21.9 mph N/A   Scattered Clouds
4:53 AM 84.0 °F 92.6 °F 75.9 °F 76% 29.94 in 10.0 mi SSW 13.8 mph - N/A   Scattered Clouds
5:34 AM 84.2 °F 92.3 °F 75.2 °F 74% 29.94 in 10.0 mi SSW 15.0 mph - N/A   Mostly Cloudy
5:53 AM 84.0 °F 92.6 °F 75.9 °F 76% 29.95 in 10.0 mi SSW 13.8 mph - N/A   Scattered Clouds
6:53 AM 84.0 °F 92.6 °F 75.9 °F 76% 29.96 in 10.0 mi SSW 12.7 mph - N/A   Mostly Cloudy
7:53 AM 84.0 °F 92.6 °F 75.9 °F 76% 29.96 in 10.0 mi SW 10.4 mph - N/A   Clear
8:53 AM 84.9 °F 94.1 °F 75.9 °F 74% 29.99 in 10.0 mi SW 10.4 mph - N/A   Mostly Cloudy
9:10 AM 84.2 °F 92.3 °F 75.2 °F 74% 29.98 in 10.0 mi SSW 9.2 mph - N/A   Scattered Clouds
9:50 AM 86.0 °F 95.1 °F 75.2 °F 70% 29.98 in 10.0 mi WSW 10.4 mph - N/A   Mostly Cloudy
9:53 AM 86.0 °F 95.1 °F 75.0 °F 70% 29.98 in 10.0 mi WSW 10.4 mph - N/A   Scattered Clouds
10:08 AM 86.0 °F 93.4 °F 73.4 °F 66% 29.98 in 10.0 mi WSW 9.2 mph 17.3 mph N/A   Mostly Cloudy
10:19 AM 86.0 °F 93.4 °F 73.4 °F 66% 29.98 in 10.0 mi SW 12.7 mph - N/A   Partly Cloudy
10:53 AM 88.0 °F 95.6 °F 73.0 °F 61% 29.99 in 10.0 mi SW 11.5 mph - N/A   Clear
11:53 AM 91.0 °F 100.4 °F 73.9 °F 57% 29.99 in 10.0 mi South 10.4 mph 18.4 mph N/A   Scattered Clouds
12:53 PM - - - N/A% 29.98 in - North - - N/A   Unknown
1:53 PM - - - N/A% 29.96 in - North - - N/A   Unknown
2:53 PM 91.9 °F 103.2 °F 75.0 °F 58% 29.94 in 10.0 mi South 16.1 mph 20.7 mph N/A   Unknown
3:53 PM 91.0 °F 101.6 °F 75.0 °F 59% 29.91 in 10.0 mi South 18.4 mph - N/A   Clear
4:53 PM 90.0 °F 99.0 °F 73.9 °F 59% 29.90 in 10.0 mi South 15.0 mph - N/A   Clear
5:53 PM 89.1 °F 98.0 °F 73.9 °F 61% 29.90 in 10.0 mi South 16.1 mph 21.9 mph N/A   Clear
6:53 PM 88.0 °F 96.5 °F 73.9 °F 63% 29.88 in 10.0 mi South 17.3 mph 23.0 mph N/A   Clear
7:53 PM 84.9 °F 93.3 °F 75.0 °F 72% 29.88 in 10.0 mi South 13.8 mph - N/A   Clear
8:53 PM 84.9 °F 93.3 °F 75.0 °F 72% 29.90 in 10.0 mi South 12.7 mph - N/A   Clear
9:53 PM 84.0 °F 91.9 °F 75.0 °F 74% 29.94 in 10.0 mi SSE 11.5 mph - N/A   Clear
10:53 PM 82.9 °F 90.8 °F 75.9 °F 79% 29.98 in 10.0 mi East 8.1 mph - N/A   Clear
11:53 PM 82.9 °F 90.8 °F 75.9 °F 79% 29.96 in 10.0 mi SE 8.1 mph - N/A   Clear